Location: Unspecified
(0.0000°N, 0.0000°E)
Time: 14:45:19
(UTC+00:00)

Altair - Pass Details

Date: 04 November 2021
Orbit: 1502 x 1682 km, 47.2° (Epoch: 26 November)

Event Time Altitude Azimuth Distance (km) Brightness Sun altitude
Rises 08:36:12 0° 319° (NW) 4,827 9.7 41.2°
Reaches altitude 10° 08:39:17 10° 318° (NW) 3,863 9.3 42.0°
Maximum altitude 08:49:15 83° 231° (SW) 1,680 8.5 44.3°
Drops below altitude 10° 08:59:27 10° 143° (SE) 3,943 10.4 46.6°
Sets 09:02:37 0° 142° (SE) 4,931 10.7 47.4°
